Weather in Mendoza

Argentina     32°54′22″S   68°49′11″W
temp.,
°C
wind,
m/s
gust,
m/s
humid.,
%
clouds,
%
prec.,
mm/h
press.,
hPa
HPBL,
m
8 may, sat
sat800:00+10ene12730 0.0 101863
03:00+9s33787 0.0 101856
06:00+8s348011 0.0 101760
09:00+9s127799 0.0 101844
12:00+13ene115984 0.0 1018599
15:00+16nne224644 0.0 10151019
18:00+17ene114582 0.0 10151147
21:00+14e125493 0.0 101734
9 may, sun
sun900:00+11e12607 0.0 101843
03:00+10sse1263100 0.0 101829
06:00+11sse2262100 0.0 101836
09:00+11s23630 0.0 102062
12:00+16sse34460 0.0 10201033
15:00+18sse34370 0.0 10181702
18:00+18se44363 0.0 10181174
21:00+13sse235475 0.0 102264
10 may, mon
mon1000:00+12ssw225782 0.0 102337
03:00+12ssw226025 0.0 102330
06:00+11s22635 0.0 102321
09:00+11sse226684 0.0 102561
12:00+14ese2252100 0.0 1025858
15:00+16e4345100 0.0 10221769
18:00+15se3447100 0.0 1021679
21:00+14ssw1149100 0.0 1023137
11 may, tue
tue1100:00+14ssw225195 0.0 1023133
03:00+12sse225759 0.0 102299
06:00+10sse22635 0.0 102134
09:00+10s11600 0.0 102339
12:00+15ne24440 0.0 1022755
15:00+18nne45360 0.0 10181277
18:00+18nne44374 0.0 10171027
21:00+15nne34460 0.0 101867
12 may, wed
wed1200:00+13nne22505 0.0 101817
03:00+10nne11660 0.0 101811
06:00+9e11760 0.0 101711
09:00+10ne11730 0.0 101724
12:00+16nne35490 0.0 1016568
15:00+19nne3337100 0.0 1013894
18:00+19nne3436100 0.0 1012244
21:00+16nne1144100 0.0 101312